THOR ABLESTAR DEB, 48826

Orbit data source: Space-Track

THOR ABLESTAR DEB, 48826 is space debris in LEO originally from a launch on Thu, 29 Jun 1961 UTC launched from the Air Force Eastern Test Range (AFETR). Debris objects in space refer to the collection of defunct objects orbiting the Earth. Examples of debris include non-operational satellites, rocket bodies, and fragments generated from explosions, collisions, or faulty payload assembly.

Loading next visibility...
Identifier
48826, 1961-015NE
Orbit
LEO
Country
Flag of USUS
Related business
Manufacturer
Unknown
Mission
Spacecraft
Bus & Motor
Unknown
Mass
Unknown
Launch date (UTC)
1961-06-29 (64 years ago)
Launch vehicle
Unknown
Launch site
Air Force Eastern Test Range (AFETR)
Object type
Payload
Rocket body
Debris
Shape & HBR
Unknown shape, 0.1 m
Radar Cross Section
Small (<0.1 m²)

Expand to show TLE details & history
Last TLE update: 4 days ago

TLE from 4 days ago
0 THOR ABLESTAR DEB
1 48826U 61015NE  25299.33860279  .00001841  00000-0  70230-3 0  9995
2 48826  66.5976 259.1803 0046955 164.4268 272.1665 14.32439629621198
Epoch: 2025-10-26T08:07Z
TLE epoch observation values (Epoch: 2025-10-26T08:07:35.281Z)
Latitude
63.0756°
Longitude
160.28328°
Altitude
792.453 km
Speed
7.464 km/s
True Right ascension
21h 08m 32s
True Declination
62° 56' 14"
Sunlit
Object was in daylight at epoch
Visualization orbit readout
Latitude
Unknown
Longitude
Unknown
Altitude
Unknown
Speed
Unknown
Apparent Right ascension
Unknown
Apparent Declination
Unknown
Sunlit
N/A
Visualization observer readout
Local Sidereal Time
13:45:54
Azimuth
Unknown
Elevation
Unknown
Doppler factor
Unknown
Orbital elements
Apogee altitude
815.593 km
Perigee altitude
748.352 km
Semi-major axis
7,160.11 km
Eccentricity
0.0047
Inclination
66.5976°
RAAN
259.1803°
Arg. of periapsis
164.4268°
True anomaly
271.62871°
Mean anomaly
272.1665°
Eccentric anomaly
271.89762°
Mean motion
3.58231 °/min
Orbital period
100.49 mins
BSTAR
0.0007023

Documentation

Showing up to 5 results
|